This demonstration page uses our WeatherBlox Daily Observations layout. Learn more.

41.55636, -103.73856

Hourly Observations for November 27, 2015

Temp ( °F °C ) Dew Point ( °F °C ) Humidity (%) Winds ( mph kmh ) Pressure ( in mb ) Visibility ( mi km ) Precip ( " mm )
12:53 am 00:53 Cloudy 17 -8.3 13 -10.6 84 84 NW 7 11 30.64 1038 10 16.0934 0 0
1:53 am 01:53 Cloudy 17 -8.3 13 -10.6 84 84 WNW 7 11 30.66 1038 10 16.0934 0 0
2:25 am 02:25 Cloudy 17 -8.3 13 -10.6 84 84 NW 3 6 30.77 1042 10 16.0934 0 0
2:53 am 02:53 Cloudy 18 -7.8 13 -10.6 81 81 NW 3 6 30.66 1038 10 16.0934 0 0
3:30 am 03:30 Cloudy 18 -8 12 -11 79 79 Calm 30.77 1042 10 16.0934 0 0
3:40 am 03:40 Cloudy 18 -8 12 -11 79 79 VRB 3 6 30.77 1042 10 16.0934 0 0
3:53 am 03:53 Cloudy 18 -7.8 10 -12.2 71 71 E 6 9 30.66 1038 10 16.0934 0 0
4:16 am 04:16 Cloudy 18 -8 10 -12 73 73 E 6 9 30.77 1042 10 16.0934 0 0
4:53 am 04:53 Cloudy 17 -8.3 10 -12.2 74 74 E 5 7 30.65 1038 10 16.0934 0 0
5:53 am 05:53 Cloudy 17 -8.3 10 -12.2 74 74 ENE 3 6 30.66 1038 10 16.0934 0 0
6:53 am 06:53 Cloudy 17 -8.3 10 -12.2 74 74 Calm 30.68 1039 10 16.0934 0 0
7:53 am 07:53 Cloudy 18 -7.8 10 -12.2 71 71 SSE 3 6 30.67 1039 10 16.0934 0 0
8:29 am 08:29 Partly Cloudy 18 -7.8 10 -12.2 71 71 SE 6 9 30.77 1042 10 16.0934 0 0
8:53 am 08:53 Sunny 18 -7.8 9 -12.8 68 68 ESE 5 7 30.67 1039 10 16.0934 0 0
9:53 am 09:53 Mostly Sunny 19 -7.2 10 -12.2 68 68 Calm 30.67 1039 10 16.0934 0 0
10:53 am 10:53 Partly Cloudy 20 -6.7 9 -12.8 62 62 Calm 30.65 1038 10 16.0934 0 0
11:53 am 11:53 Sunny 22 -5.6 11 -11.7 63 63 SSE 5 7 30.63 1037 10 16.0934 0 0
12:53 pm 12:53 Sunny 22 -5.6 10 -12.2 60 60 VRB 5 7 30.6 1036 10 16.0934 0 0
1:53 pm 13:53 Sunny 22 -5.6 9 -12.8 57 57 SSE 5 7 30.58 1035 10 16.0934 0 0
2:53 pm 14:53 Cloudy 22 -5.6 11 -11.7 63 63 S 5 7 30.57 1035 10 16.0934 0 0
3:53 pm 15:53 Cloudy 22 -5.6 10 -12.2 60 60 SSE 5 7 30.55 1035 10 16.0934 0 0
4:53 pm 16:53 Cloudy 21 -6.1 8 -13.3 57 57 S 8 13 30.55 1035 10 16.0934 0 0
5:53 pm 17:53 Cloudy 21 -6.1 10 -12.2 62 62 SSW 3 6 30.57 1035 10 16.0934 0 0
6:53 pm 18:53 Cloudy 21 -6.1 9 -12.8 59 59 Calm 30.56 1035 10 16.0934 0 0
7:53 pm 19:53 Cloudy 22 -5.6 10 -12.2 60 60 Calm 30.54 1034 10 16.0934 0 0
8:53 pm 20:53 Cloudy 21 -6.1 11 -11.7 65 65 Calm 30.53 1034 10 16.0934 0 0
9:53 pm 21:53 Cloudy 21 -6.1 11 -11.7 65 65 Calm 30.53 1034 10 16.0934 0 0
10:53 pm 22:53 Cloudy 21 -6.1 11 -11.7 65 65 ESE 3 6 30.5 1033 10 16.0934 0 0
11:53 pm 23:53 Cloudy 21 -6.1 12 -11.1 68 68 SE 6 9 30.48 1032 10 16.0934 0 0

Powered by AerisWeather